GFSGL_sfc_rhum_000.txt.gz
RH
73 75 79 82 79 81 83 80 80 81 84 87 87 86 83 82 85 89 89 86 87 89 93 93 89 92 92 97 97 98 97 99 99 90 89 75 78 74 72 85 85 88 93
72 88 81 85 84 84 84 80 82 85 83 78 81 83 84 85 88 89 88 84 86 89 90 93 91 86 92 95 97 96 98 97 100 98 90 87 81 74 78 87 79 76 87
82 88 83 76 78 84 84 80 82 80 78 78 75 75 80 81 84 85 88 88 90 90 90 94 91 93 95 96 97 98 98 98 99 99 94 87 85 79 80 84 91 87 83
87 84 82 66 70 78 82 81 81 81 80 80 78 80 83 80 80 83 87 92 92 88 86 90 93 92 92 94 96 96 97 98 99 99 96 92 86 74 80 93 92 92 88
81 82 76 66 71 75 81 80 81 83 81 81 83 83 82 80 72 85 89 88 90 89 91 92 93 91 86 92 97 96 98 98 98 98 89 91 81 79 79 73 94 90 86
83 80 83 76 79 76 75 81 87 86 82 84 84 83 77 71 77 83 74 79 81 87 90 90 91 86 90 89 90 89 92 98 98 99 93 96 87 90 77 89 96 96 95
86 86 87 83 86 74 73 83 84 83 85 84 83 79 78 80 82 81 85 83 79 81 90 94 93 93 91 94 91 90 90 90 90 97 97 94 95 85 87 95 96 97 90
88 83 77 76 78 73 79 81 79 89 92 84 82 86 83 80 87 88 89 80 84 90 93 94 94 93 94 95 95 93 93 95 95 89 93 83 86 77 88 94 97 98 93
85 84 76 72 72 76 81 88 80 92 91 93 88 87 95 91 90 90 90 90 92 90 89 92 94 93 91 88 89 93 95 96 89 88 87 89 88 88 90 98 99 99 97
84 77 70 71 70 76 80 86 75 92 96 97 94 96 93 94 91 91 93 95 88 91 94 93 91 90 91 94 95 98 97 92 96 94 88 88 87 87 85 96 99 98 98
81 76 70 70 67 67 73 89 94 97 98 96 94 92 95 95 93 94 95 91 94 98 95 90 97 90 94 94 97 97 98 97 97 97 96 93 92 92 96 97 98 99 97
90 89 89 86 91 76 92 97 97 97 96 94 93 96 98 94 94 96 96 99 96 94 90 97 96 93 93 93 95 94 95 95 98 98 98 98 98 97 96 96 96 94 81
91 96 90 87 93 94 97 98 98 95 97 96 98 96 97 99 96 90 88 88 88 91 95 89 90 91 90 90 90 90 94 98 98 98 99 99 98 98 96 96 95 95 94
93 94 93 92 94 92 96 97 97 97 97 97 96 97 99 97 95 96 94 96 92 89 86 96 94 86 89 90 93 96 98 97 96 99 99 98 98 98 98 97 98 98 99
90 91 92 90 95 99 100 99 98 98 97 96 96 97 99 96 92 98 98 95 90 89 97 98 97 87 82 95 94 95 96 95 97 97 98 98 98 99 98 98 98 98 98
90 82 94 96 99 99 100 100 99 99 98 97 99 87 89 89 91 89 91 94 96 95 96 96 96 95 96 94 88 88 84 82 93 94 96 97 97 99 99 98 97 98 98
93 92 93 97 99 98 98 98 99 99 99 98 92 90 86 86 91 91 94 93 93 86 90 92 92 88 89 88 85 77 73 65 83 89 95 89 93 96 98 98 98 98 97
91 94 94 97 98 96 97 98 99 99 98 96 98 95 91 90 92 89 87 79 76 80 85 82 69 70 72 75 76 78 68 61 62 65 66 60 84 96 95 97 97 98 99
93 92 92 97 98 98 98 99 99 98 99 98 98 99 100 95 93 91 84 72 73 80 75 72 67 67 72 74 75 76 74 74 68 66 66 62 60 89 92 93 95 94 97
86 86 87 92 98 98 98 98 99 98 99 98 98 96 94 95 94 92 89 88 87 83 81 79 77 80 82 86 75 68 75 78 77 73 72 68 64 65 70 87 89 94 96
79 76 83 92 91 95 96 94 93 98 98 98 95 86 96 92 95 93 90 90 90 91 92 87 75 82 74 63 66 74 79 82 83 79 75 73 70 68 65 58 60 71 86
80 78 81 88 96 96 95 96 94 89 94 92 95 83 89 92 93 93 90 85 85 88 79 71 71 66 61 62 74 78 79 80 81 81 77 76 71 64 63 58 53 54 58
90 95 96 96 96 94 95 91 88 82 77 77 78 81 87 92 93 93 87 88 84 76 69 68 65 64 66 69 75 77 75 78 83 84 80 78 73 65 65 64 58 54 56
86 86 91 93 92 90 88 82 79 78 73 73 76 77 91 90 88 85 85 80 70 72 68 67 63 58 58 61 65 66 72 82 83 80 78 74 70 66 60 59 59 55 55
79 84 86 89 89 91 91 88 79 78 71 64 76 86 91 91 86 82 82 67 62 71 70 67 63 55 52 51 56 60 73 81 75 83 80 62 59 60 58 60 62 58 55
66 66 80 89 94 92 92 89 87 81 82 72 76 86 90 89 86 82 72 58 58 63 68 69 63 56 54 58 61 74 85 80 79 86 80 62 58 61 58 57 55 61 58

GFSGL_sfc_rhum_003.txt.gz
RH
69 66 75 79 86 86 85 81 81 82 80 82 82 84 86 85 84 90 91 90 91 92 92 95 95 95 97 98 98 98 98 99 98 96 96 86 89 84 78 80 81 82 82
69 84 76 82 81 87 88 80 81 81 82 83 86 88 86 85 86 90 90 86 89 90 90 94 94 90 96 96 98 97 98 97 99 97 94 93 93 83 83 88 78 70 74
75 83 86 92 89 91 87 81 82 83 83 81 79 78 73 73 81 84 89 88 90 91 91 92 94 93 96 97 97 98 98 97 99 99 94 80 85 84 85 84 84 76 73
79 78 87 88 86 79 77 80 82 84 81 79 77 72 74 76 81 82 85 89 91 92 92 92 93 94 95 96 97 97 97 98 98 99 94 85 86 79 81 81 78 70 73
80 83 80 88 80 77 84 82 80 78 73 78 76 77 79 81 71 80 85 91 92 90 88 90 92 90 88 94 98 96 98 98 99 99 96 90 92 84 82 77 82 77 71
86 84 87 89 82 69 79 82 81 72 75 84 81 81 81 72 76 82 84 82 81 84 84 86 89 83 88 87 90 92 94 97 98 99 96 98 95 88 79 78 83 94 92
88 89 92 91 84 73 69 80 80 72 79 85 82 81 80 77 80 83 84 82 77 80 86 92 93 92 90 93 91 91 91 91 92 97 98 97 96 86 80 92 92 94 90
90 90 89 88 85 74 83 78 72 76 79 81 87 86 81 79 83 87 88 92 88 85 90 93 92 91 93 94 96 94 92 93 94 90 98 94 91 84 82 88 94 96 96
92 92 96 89 77 84 77 69 65 89 92 93 90 90 92 89 92 90 93 93 91 90 88 89 93 92 90 90 92 93 95 96 88 88 92 92 92 91 90 97 96 98 98
88 87 86 82 75 83 75 72 70 90 93 96 91 91 95 93 93 93 94 95 91 91 94 93 86 93 92 93 91 95 98 97 98 93 86 91 89 90 88 95 98 99 99
90 91 91 81 83 88 88 93 92 97 98 97 95 95 94 94 93 92 94 95 92 96 97 90 95 93 95 93 98 96 96 97 97 98 92 86 90 92 93 94 95 99 99
94 89 85 91 87 92 94 95 94 97 97 99 97 97 97 96 98 96 98 96 93 95 90 96 96 93 94 94 95 92 94 93 99 98 96 97 97 97 96 96 95 97 98
96 95 94 95 93 94 95 93 94 96 99 98 98 98 98 99 98 96 92 92 89 91 95 94 89 93 96 91 90 89 90 98 99 99 97 98 97 98 97 96 93 94 94
95 95 95 93 93 95 98 97 99 99 98 97 97 98 99 98 97 96 96 96 91 87 84 97 93 94 90 86 92 93 97 97 96 98 98 98 97 97 98 98 98 97 98
97 98 96 97 93 97 100 100 99 98 99 98 97 98 99 98 95 97 97 93 94 96 97 96 96 96 96 96 92 93 94 94 96 96 97 97 97 97 98 98 98 98 98
95 94 93 95 95 99 99 100 99 99 98 100 96 97 95 93 89 90 90 92 95 94 87 86 96 96 95 96 91 85 82 74 88 92 93 95 93 96 98 98 98 98 99
94 95 91 90 98 100 100 99 99 97 98 97 91 89 85 87 90 90 94 94 95 90 79 84 93 87 86 86 83 82 80 73 79 86 91 81 82 92 97 97 98 98 98
92 92 96 98 98 99 99 99 99 97 97 96 98 94 92 91 90 90 85 82 79 74 87 85 73 68 70 72 75 78 79 76 76 71 73 69 74 88 92 94 96 98 98
96 96 94 98 99 99 98 98 98 98 98 98 97 98 99 97 99 89 86 85 83 79 74 73 72 74 77 80 78 72 81 82 81 80 74 72 70 83 87 88 90 91 95
93 92 95 98 99 99 99 98 99 99 98 98 98 97 97 96 94 93 92 91 87 86 86 85 86 86 87 75 63 68 82 82 83 81 78 76 74 72 68 78 81 88 94
91 88 91 98 99 99 99 99 99 98 98 96 95 94 88 82 89 89 93 93 93 92 91 84 82 79 61 60 72 81 84 80 82 83 81 78 78 75 69 64 58 56 76
86 94 95 96 98 96 96 97 99 98 98 91 88 83 92 80 84 88 91 89 89 92 84 71 66 60 59 68 78 79 80 79 79 82 81 80 77 72 70 66 61 56 56
95 94 95 96 97 96 98 98 98 97 92 83 84 77 78 80 86 96 93 93 94 84 74 69 66 65 68 73 75 75 72 75 80 83 82 78 72 71 71 68 67 66 64
94 94 95 96 96 96 96 96 88 85 78 81 77 76 79 77 92 94 93 91 85 76 72 67 63 58 59 64 65 64 67 75 83 83 80 72 68 68 68 67 68 62 62
85 87 92 95 95 94 90 88 79 82 90 86 89 80 89 91 91 88 90 79 76 76 72 68 63 52 46 48 52 56 62 80 80 85 79 63 61 61 62 66 67 66 62
72 78 86 95 95 94 94 94 90 87 86 81 94 97 92 90 91 88 89 70 69 73 70 70 63 52 48 51 51 70 82 82 82 90 74 64 62 64 62 61 59 62 63

GFSGL_sfc_rhum_006.txt.gz
RH
87 85 79 77 80 81 83 85 84 81 85 85 85 84 84 84 85 88 89 87 89 90 89 92 91 92 88 86 88 89 94 96 94 73 75 74 80 80 77 76 72 75 69
81 83 79 68 78 77 84 85 86 84 86 84 85 86 86 86 87 87 86 83 86 88 88 89 88 81 91 90 89 93 95 94 96 95 79 75 82 82 83 85 75 63 68
81 83 78 79 83 88 88 87 87 84 84 83 85 87 86 84 83 83 87 86 88 88 88 89 88 87 90 88 92 94 96 93 96 95 85 76 77 74 80 81 82 77 68
78 81 83 80 82 87 89 86 86 84 84 84 84 83 82 79 79 81 84 86 88 84 87 88 86 87 90 91 93 95 95 97 96 96 86 81 79 79 78 78 74 66 68
81 83 80 81 78 88 90 90 88 84 82 83 83 82 81 76 66 82 84 86 87 85 87 85 84 85 87 92 95 94 95 97 97 93 85 81 79 77 79 72 75 71 72
84 84 83 87 88 84 90 89 89 84 82 82 83 81 80 70 79 83 83 82 85 86 83 82 82 79 83 86 88 91 94 96 96 93 83 88 87 83 76 77 75 77 82
90 88 88 89 90 96 98 96 91 83 80 84 83 82 82 82 85 84 85 88 82 81 86 88 84 85 86 82 85 89 90 92 94 96 95 93 92 84 84 88 87 87 85
94 91 92 91 91 94 94 91 91 88 86 85 86 86 84 81 85 87 87 88 86 84 86 86 90 87 83 86 87 86 81 82 82 74 86 84 85 84 89 88 93 95 91
95 94 92 91 91 92 93 92 84 90 91 91 90 89 90 89 94 93 92 91 90 90 86 83 85 90 89 90 84 86 85 82 80 86 87 88 90 90 91 95 97 97 97
94 93 92 91 91 93 93 92 90 94 94 96 93 93 97 95 95 99 96 96 90 84 88 91 89 86 93 93 86 89 91 82 81 81 79 80 82 83 89 92 96 99 98
93 92 93 94 95 94 96 96 97 97 98 97 94 93 96 97 95 99 96 92 81 86 86 80 88 92 94 92 98 91 91 90 87 86 80 74 77 80 79 84 92 98 98
95 95 94 96 96 97 95 98 97 96 94 93 91 94 94 93 100 97 96 94 91 88 83 80 91 92 95 94 93 92 92 88 91 89 81 82 92 86 84 90 92 95 97
94 95 95 95 96 96 97 97 97 94 96 94 96 97 98 98 98 99 99 100 98 79 78 85 90 91 94 91 90 86 86 90 91 86 84 86 87 88 92 92 91 93 94
96 96 96 96 96 96 97 97 96 95 96 98 98 99 97 97 95 88 81 81 88 79 77 76 90 89 90 82 84 81 85 85 84 88 84 87 87 88 90 93 98 98 98
94 96 97 97 97 98 98 99 99 100 99 99 98 92 93 94 85 92 91 81 78 81 84 87 92 81 82 74 70 76 77 72 75 78 84 85 87 83 88 92 97 98 99
96 97 98 98 98 98 99 100 99 100 99 100 99 93 84 92 94 94 92 94 99 98 81 80 80 81 74 68 65 61 58 60 60 64 65 76 72 82 88 91 96 98 99
94 93 85 86 94 99 99 99 98 97 99 98 96 90 87 89 90 93 94 95 95 90 74 74 72 66 63 60 56 54 54 58 68 58 72 60 59 72 83 88 93 97 98
89 92 96 96 97 99 99 98 97 95 92 83 94 87 92 92 91 88 86 82 67 69 67 67 61 53 53 54 53 51 53 56 56 57 58 58 58 62 68 78 88 93 97
92 92 89 92 98 98 98 97 95 91 90 86 88 95 97 97 97 89 88 69 67 63 59 54 53 54 57 60 53 49 54 58 59 57 55 57 57 59 62 68 81 82 91
93 94 93 91 98 98 97 96 94 94 92 85 81 82 86 87 77 74 73 71 67 61 60 61 63 64 66 54 46 48 55 56 56 54 56 57 56 55 53 57 60 79 84
81 85 92 90 93 92 90 93 94 95 87 83 79 82 92 74 74 75 70 70 67 66 67 64 66 60 48 46 53 56 54 52 54 56 55 54 57 53 53 51 50 50 54
77 85 88 90 94 94 93 95 94 92 89 82 78 78 92 67 70 73 71 69 68 70 60 56 48 41 39 44 56 52 51 51 54 55 55 52 52 50 49 46 46 48 49
88 84 89 92 92 95 91 91 88 84 83 78 72 69 73 68 68 70 72 68 69 70 60 52 48 42 43 48 50 48 45 48 53 57 56 53 49 50 49 46 46 47 49
82 81 83 84 86 84 84 85 81 87 75 80 77 76 69 71 70 72 72 72 72 66 54 50 46 40 43 42 43 40 42 45 55 55 58 50 48 52 47 45 45 48 46
72 75 78 83 82 80 79 74 75 75 76 79 74 70 66 64 65 67 71 70 69 62 56 50 45 42 38 37 35 35 51 76 69 76 51 47 48 52 47 43 45 42 45
66 70 72 75 77 77 75 73 69 67 67 75 74 74 72 69 66 65 67 66 62 57 54 49 46 41 37 35 36 51 77 82 68 90 50 43 42 42 42 44 43 38 42

GFSGL_sfc_rhum_009.txt.gz
RH
69 72 73 74 80 78 76 80 80 72 72 71 72 67 65 65 66 72 72 66 68 68 70 73 74 76 62 63 65 64 62 63 64 48 43 56 71 69 62 60 57 58 48
65 73 74 76 77 80 77 68 72 83 70 69 70 69 66 63 65 70 68 59 66 67 65 69 68 59 75 76 63 75 73 69 67 75 62 53 63 66 67 70 60 49 50
60 65 71 75 74 76 75 70 75 76 70 64 68 71 68 65 68 70 69 64 65 66 66 67 66 69 73 61 68 62 56 80 71 77 62 50 51 54 60 63 63 61 52
52 62 73 73 72 74 76 70 74 82 78 74 71 67 67 65 65 62 61 65 66 63 66 66 67 70 71 68 65 71 69 67 65 65 59 52 49 56 55 56 52 45 47
62 64 71 73 71 71 79 93 94 95 88 84 79 74 69 62 50 62 63 64 67 64 63 68 67 70 77 77 60 65 74 65 55 54 54 50 49 49 56 50 53 49 53
68 70 71 75 75 80 87 87 93 95 97 94 82 80 78 57 68 78 71 60 64 68 66 63 66 76 75 84 86 89 83 76 74 88 67 61 69 62 55 55 55 55 58
74 72 74 77 80 83 86 89 91 96 94 92 83 82 76 70 82 85 86 60 63 64 68 67 62 52 76 64 71 82 84 90 92 80 81 72 73 69 71 73 73 81 82
76 76 77 80 80 82 87 88 92 95 92 94 85 80 76 69 87 89 89 69 70 67 68 70 73 72 68 70 67 65 64 66 69 58 66 67 67 66 72 78 90 92 82
73 78 79 80 81 84 88 91 92 96 92 86 84 82 77 77 91 93 91 85 80 85 69 74 74 71 84 87 70 70 70 66 70 82 83 86 88 89 84 81 84 82 79
71 75 78 81 81 84 88 93 88 85 88 87 81 76 78 79 98 96 96 98 89 80 75 80 86 79 90 93 73 70 72 67 66 64 61 64 70 66 80 73 74 96 88
72 77 83 86 86 85 93 94 90 93 97 97 92 82 87 88 89 99 100 87 88 72 60 59 61 88 94 94 97 72 74 73 68 62 55 50 52 54 50 54 63 66 92
81 83 88 91 89 93 95 96 91 94 97 99 94 86 84 75 98 98 100 98 88 67 62 56 67 89 92 94 85 91 90 80 53 52 51 49 50 48 48 55 67 68 74
86 90 90 89 88 92 88 94 95 93 77 87 90 91 61 72 78 99 100 99 98 75 58 72 86 89 92 88 85 84 80 54 52 52 49 46 45 46 59 56 57 70 75
88 89 88 87 88 86 80 83 92 94 87 97 74 88 78 82 69 67 68 72 84 70 75 56 76 85 90 72 67 62 55 50 49 48 46 43 42 41 40 42 52 64 89
84 81 79 73 76 81 83 89 74 85 92 89 90 74 69 75 69 78 74 64 56 70 69 56 59 58 59 60 61 56 50 47 46 43 42 40 39 37 37 41 54 64 92
78 71 67 63 65 65 74 88 99 98 100 100 100 81 70 90 98 95 94 97 99 99 58 52 54 56 58 56 52 48 44 46 43 43 40 38 38 39 39 43 52 62 88
75 77 64 67 62 70 72 68 68 78 99 98 98 92 84 85 92 94 94 94 97 90 53 52 53 55 52 49 43 40 40 39 52 38 39 39 38 38 41 45 53 61 76
74 87 60 57 60 76 78 72 63 66 63 61 89 76 92 92 91 90 90 85 56 63 50 51 52 50 45 43 41 38 37 34 34 37 37 36 37 39 39 43 51 66 74
61 54 55 53 58 65 75 73 67 69 59 58 61 76 86 98 91 90 88 52 49 46 45 46 44 41 42 44 44 40 39 31 39 40 35 35 35 36 38 39 43 65 68
65 88 72 61 78 80 79 75 71 68 62 58 56 53 58 68 57 57 55 53 47 42 43 44 45 46 48 47 40 35 32 36 38 35 36 36 35 34 33 34 37 45 52
67 63 78 59 61 61 61 61 62 61 55 54 52 58 77 56 52 51 48 49 46 45 49 47 46 44 41 39 36 34 34 35 36 36 35 34 36 34 33 31 30 35 40
56 64 58 56 62 63 63 68 63 58 54 54 53 63 94 55 48 48 49 48 46 49 45 45 36 32 28 29 34 34 34 35 36 36 36 33 32 32 31 28 29 30 33
59 54 58 60 62 77 66 64 60 56 55 54 53 52 56 50 48 47 49 47 49 49 48 40 36 29 27 27 31 34 32 34 36 37 36 34 30 32 31 29 28 31 32
51 50 52 54 57 54 58 58 56 69 52 52 51 49 50 51 54 51 46 48 49 49 47 40 34 28 29 24 28 29 31 34 38 36 41 34 31 36 30 28 27 31 28
49 51 52 54 55 56 58 53 53 51 51 51 51 60 60 53 48 46 45 47 49 50 48 40 34 32 30 28 22 26 44 70 59 74 36 34 35 39 32 26 29 27 31
41 44 44 47 48 49 48 49 49 48 48 48 48 48 50 51 49 48 46 46 46 46 45 39 35 33 30 26 29 46 72 76 60 90 43 30 30 28 28 29 30 25 28

GFSGL_sfc_rhum_015.txt.gz
RH
55 58 61 60 61 67 64 63 64 65 61 56 62 56 55 58 56 62 61 55 57 62 58 56 58 60 45 39 37 38 36 36 41 37 36 43 64 60 53 54 47 57 44
49 58 60 61 61 60 67 64 68 69 61 63 65 64 60 66 64 65 58 53 54 54 54 62 56 44 69 72 48 74 67 52 43 67 55 45 57 60 61 63 47 36 40
45 47 55 58 61 62 66 64 68 72 68 61 63 72 68 70 73 71 64 66 63 58 57 61 58 59 66 53 60 53 42 48 48 42 46 44 50 48 51 61 73 65 48
32 37 50 57 58 58 62 66 67 72 72 68 68 68 72 74 71 70 68 72 67 60 60 58 57 58 66 68 62 69 62 56 53 45 42 47 51 59 47 52 59 60 47
35 36 45 56 59 60 63 67 68 73 72 70 73 70 73 71 63 73 70 70 72 67 60 58 58 61 67 73 56 66 73 56 44 42 42 46 44 56 56 48 52 52 54
42 41 47 59 63 64 66 69 74 77 76 73 71 73 78 70 76 82 72 69 68 65 63 61 62 70 72 83 84 84 78 73 76 57 50 54 71 60 50 59 52 50 51
48 49 51 62 66 70 69 74 79 79 78 78 74 74 75 70 92 86 84 58 66 68 70 67 59 42 67 59 88 92 89 87 85 73 77 75 73 69 72 73 70 64 59
57 56 58 62 66 72 75 75 83 81 82 77 82 78 71 68 92 94 88 73 68 69 72 66 75 78 77 76 81 83 75 62 72 64 69 69 71 67 70 67 73 74 61
57 61 61 62 65 69 75 79 84 83 84 80 77 80 81 82 92 89 88 77 72 78 74 72 76 83 91 89 86 80 71 64 57 75 77 76 75 74 71 53 53 48 53
54 57 60 63 67 69 76 83 82 82 84 78 78 76 79 70 92 90 85 74 82 90 89 89 94 89 95 94 84 78 71 63 53 51 59 67 78 69 81 74 55 55 49
47 50 58 63 68 69 78 83 82 85 84 84 82 74 71 70 71 94 93 78 59 79 57 70 93 93 92 92 88 71 69 71 65 55 48 52 52 44 32 46 73 55 45
55 56 63 68 60 69 85 88 87 89 90 89 83 83 70 83 88 96 96 91 87 57 57 69 65 93 92 92 85 75 80 79 48 45 48 53 43 33 33 40 60 57 49
65 67 68 78 78 84 87 91 86 89 86 88 76 77 86 96 85 98 98 98 98 80 55 76 96 95 89 86 92 84 87 53 49 48 47 38 33 34 53 52 54 60 59
70 84 86 86 88 85 78 80 83 86 86 85 87 85 84 73 73 65 63 81 95 90 85 70 66 68 72 74 66 71 57 52 49 47 42 37 34 34 32 30 29 28 30
82 86 86 80 81 85 82 85 85 87 90 86 67 67 57 62 68 91 84 69 53 63 63 49 54 50 50 59 65 73 68 63 46 40 38 37 34 33 31 28 28 30 35
79 75 65 72 75 72 74 69 98 94 99 100 100 74 76 94 96 95 96 93 92 86 55 47 42 40 53 59 64 67 67 50 40 40 39 37 34 33 31 29 29 31 40
58 59 47 52 59 58 55 56 60 76 94 93 93 93 93 94 93 91 92 95 91 83 47 39 37 36 45 60 54 40 37 35 55 39 37 35 32 30 30 28 29 30 36
57 70 42 40 41 43 44 43 43 48 51 57 87 77 93 91 89 88 88 89 50 58 40 35 36 43 39 38 38 36 35 36 34 33 32 30 28 28 28 29 28 31 32
49 41 38 36 36 40 38 38 35 35 39 50 58 68 80 92 92 90 92 50 37 34 32 32 32 33 34 35 37 39 43 38 35 32 32 28 26 26 28 26 26 42 41
44 70 51 35 38 36 36 35 34 34 52 54 47 46 50 59 52 52 51 45 38 33 31 34 34 36 38 40 41 40 38 32 29 28 26 27 26 26 24 24 23 24 25
36 38 56 34 34 34 35 34 31 30 30 40 38 47 61 48 45 49 46 40 38 33 36 37 36 38 39 42 39 34 28 24 24 25 25 25 26 25 25 23 21 19 20
30 34 33 31 33 34 32 31 30 30 28 28 45 49 75 42 41 40 47 43 36 37 33 40 36 30 28 28 31 27 23 23 24 25 26 24 24 23 23 22 21 20 20
28 28 36 33 41 53 35 32 30 31 32 33 49 51 45 40 37 54 54 45 40 36 35 35 33 29 26 27 23 21 20 22 24 25 28 27 24 24 26 24 22 21 22
35 33 46 51 58 36 34 36 50 59 33 41 50 44 50 46 36 54 50 53 44 37 36 35 32 28 27 27 19 18 19 24 27 25 33 29 27 29 28 25 22 23 21
33 38 55 48 41 33 32 30 32 35 43 47 43 47 51 52 50 49 45 45 50 40 36 34 32 31 32 29 22 24 54 60 36 70 28 32 30 33 25 22 24 21 22
34 37 33 33 32 31 31 30 28 37 43 40 36 47 54 55 45 38 55 59 45 32 34 33 33 34 30 26 25 55 69 53 44 80 40 29 28 26 25 24 25 20 22

GFSGL_sfc_rhum_021.txt.gz
RH
76 73 76 81 81 78 88 81 76 79 85 79 79 80 75 83 86 91 86 83 90 81 84 81 86 79 79 76 82 76 76 80 86 73 73 70 80 73 71 72 75 78 76
74 76 74 77 81 80 74 85 85 72 84 77 78 81 76 70 86 84 81 78 83 87 85 84 75 74 76 77 83 84 86 85 80 82 84 75 74 76 77 82 77 65 72
73 76 78 76 80 79 77 76 88 73 80 77 80 78 78 76 80 77 79 86 88 88 88 86 84 79 77 84 79 82 86 80 87 86 79 80 75 79 75 80 81 82 74
71 74 77 76 76 76 77 75 79 82 76 79 76 76 75 75 79 80 89 91 90 88 85 87 79 75 81 81 82 82 90 92 91 88 89 84 82 78 86 84 80 81 78
67 72 72 73 73 76 77 81 76 80 80 78 82 78 82 76 79 80 80 87 91 92 87 86 79 79 83 84 87 93 91 94 96 98 92 86 72 78 89 87 89 86 82
62 67 68 70 74 75 78 80 85 78 87 81 84 89 90 80 80 85 80 77 93 94 93 91 76 81 81 87 91 96 95 94 93 95 87 79 77 84 92 94 95 94 94
53 63 65 68 74 76 77 81 87 84 86 90 88 82 89 85 88 89 87 90 95 95 94 90 84 74 79 88 97 97 96 94 89 74 80 82 90 91 92 93 94 96 97
54 60 63 68 71 74 76 82 78 85 80 92 88 91 88 94 92 93 88 84 93 93 92 92 89 81 86 92 92 95 93 87 92 85 93 80 92 89 95 93 93 93 94
52 55 61 64 70 72 78 75 79 76 87 92 92 86 92 98 94 94 92 88 90 90 90 88 81 81 86 95 81 80 80 85 86 90 90 89 89 88 90 93 91 93 96
46 54 58 60 65 74 74 76 76 81 95 96 95 93 96 95 96 94 86 81 84 87 94 92 84 84 89 90 94 94 90 93 91 90 90 87 85 80 82 88 78 95 97
52 61 64 66 68 75 75 77 96 98 96 97 96 97 97 96 96 94 94 80 76 79 79 93 87 90 91 95 95 95 96 92 87 88 82 82 78 79 83 84 90 97 98
78 69 88 80 80 89 92 97 97 96 96 97 97 97 93 96 95 97 94 91 84 82 96 94 94 94 93 97 99 95 87 82 84 85 86 86 85 83 70 76 78 89 95
80 86 88 91 96 95 98 99 99 95 98 98 96 96 97 98 98 95 95 94 96 93 97 99 99 100 99 99 97 96 89 88 87 90 89 88 81 58 65 67 64 62 62
87 96 97 98 99 97 96 96 96 97 98 95 96 95 98 99 99 99 98 93 95 95 96 96 98 96 97 94 92 95 95 92 88 88 82 88 83 69 67 73 69 66 63
96 98 97 97 98 97 98 99 97 95 91 88 93 98 99 99 99 98 98 98 98 94 98 97 97 94 96 96 95 91 93 86 91 91 80 88 73 71 72 67 68 61 65
98 98 98 92 93 94 97 92 95 96 97 99 99 98 89 100 100 100 100 97 96 97 96 98 98 97 96 96 96 96 90 81 85 83 79 75 72 77 67 66 68 69 75
98 97 97 94 92 94 88 89 95 90 95 98 97 93 92 98 97 95 95 92 91 90 95 96 96 95 92 94 95 88 88 94 82 74 75 79 66 61 64 66 62 68 66
92 96 84 84 84 86 88 88 88 91 95 95 96 95 96 94 93 91 89 83 81 81 90 87 83 84 82 80 76 75 78 77 74 63 59 58 59 67 64 60 62 67 61
82 84 78 79 78 80 80 80 83 84 85 90 98 94 94 92 91 89 91 90 87 83 80 79 70 72 76 79 81 82 75 69 63 60 56 65 69 64 59 56 63 66 66
91 82 77 75 76 74 74 75 75 76 83 86 88 92 92 87 86 83 81 82 80 80 80 69 71 75 75 78 79 75 71 68 68 74 72 70 63 61 54 57 60 57 58
91 72 70 65 68 68 69 66 61 69 75 77 79 80 83 80 84 85 84 86 81 80 75 74 74 72 74 75 75 66 61 59 59 65 58 57 57 57 60 60 54 55 57
70 72 63 67 67 66 61 60 67 64 67 71 74 74 83 83 77 80 83 81 80 65 61 69 68 64 70 66 65 58 52 50 61 62 59 56 56 59 60 54 58 59 54
67 58 72 75 61 65 65 67 73 71 76 84 84 83 74 76 79 81 78 77 70 66 64 62 64 59 66 59 51 44 43 59 67 67 64 61 60 61 64 60 60 58 51
69 71 79 86 92 89 79 72 83 72 67 64 64 69 69 73 76 79 75 71 67 64 64 59 56 52 53 54 55 58 61 62 61 51 50 53 59 64 67 65 57 51 48
73 81 84 91 91 89 86 87 80 82 65 64 62 65 71 78 78 80 67 67 71 69 62 61 62 55 53 44 40 38 62 63 44 56 58 54 52 54 58 56 47 54 49
85 83 82 85 84 70 72 71 74 78 74 67 68 75 77 76 79 80 79 72 72 66 65 72 60 57 53 49 40 51 70 71 53 61 48 51 54 59 66 51 47 54 50

GFSGL_sfc_rhum_024.txt.gz
RH
73 72 74 78 76 79 85 84 81 72 75 82 84 81 79 81 84 93 92 89 86 90 88 87 87 83 86 84 80 86 88 86 80 79 82 72 82 71 69 80 77 78 81
73 75 77 78 80 77 77 87 81 76 77 76 81 82 80 78 80 84 85 79 90 91 89 92 86 81 83 75 76 82 76 87 72 72 84 83 82 78 78 83 76 69 81
71 74 78 82 84 80 73 73 87 76 82 81 81 84 80 80 83 83 81 86 81 87 92 89 87 85 85 84 81 82 84 90 92 88 87 89 82 79 80 81 81 83 74
71 73 76 80 83 80 76 76 78 80 81 84 82 83 82 78 76 84 82 83 87 91 92 91 89 87 84 77 85 86 94 95 95 97 97 96 87 78 86 82 82 86 82
72 76 76 76 77 81 81 79 78 83 79 86 86 84 83 81 75 78 82 83 88 92 92 91 92 86 81 84 87 95 92 96 96 97 97 85 76 83 82 78 92 92 85
74 76 76 79 79 80 83 85 85 84 90 90 87 86 89 79 82 86 78 83 83 86 91 94 91 88 83 85 93 91 93 95 93 97 97 82 79 81 95 96 97 97 94
72 75 77 80 83 83 82 86 91 86 87 92 90 88 89 84 87 88 87 94 94 94 91 95 91 80 88 91 95 94 94 93 90 92 85 81 89 90 92 94 95 96 97
70 73 76 79 82 82 85 87 88 90 84 95 93 91 90 92 92 91 88 91 94 90 86 91 94 92 94 93 96 97 95 92 92 83 86 74 88 88 95 94 94 95 96
63 71 74 76 79 83 84 87 85 87 89 92 89 92 93 95 95 93 95 95 96 93 90 92 93 95 94 94 94 94 94 94 95 91 93 92 91 91 94 98 98 98 97
56 59 69 72 76 79 81 81 81 81 87 85 97 96 94 94 97 96 94 96 95 92 94 93 92 89 89 94 96 96 96 92 95 95 92 90 90 88 88 94 92 94 98
50 53 62 68 72 73 76 78 78 91 93 96 98 98 97 97 98 97 94 93 84 83 79 97 95 91 91 93 95 94 95 94 91 86 85 80 78 83 80 84 96 97 97
50 54 61 66 67 73 78 84 91 96 98 99 99 100 100 98 97 97 95 87 85 82 94 85 92 96 95 93 98 99 100 95 87 84 84 86 88 85 79 76 74 73 88
53 58 68 68 67 80 90 96 99 99 98 99 99 99 100 100 99 99 96 96 93 90 92 98 100 100 100 100 100 100 95 96 91 93 92 94 94 86 77 68 68 66 66
65 67 82 83 89 91 94 96 98 99 99 99 99 99 99 99 99 99 99 99 97 92 97 99 97 96 96 96 97 97 98 97 94 91 93 94 94 77 70 75 68 66 67
94 96 95 98 96 99 100 100 99 99 99 99 97 97 99 100 99 99 100 99 99 98 99 98 97 96 96 97 97 96 98 97 97 95 95 95 91 75 73 72 72 71 68
98 99 99 99 99 99 99 99 99 100 100 100 100 99 100 100 100 100 100 100 100 100 99 98 98 98 97 96 96 96 97 93 97 96 96 94 80 78 73 68 74 72 71
99 99 99 99 99 99 99 99 100 97 98 100 100 99 98 100 100 100 100 100 100 99 97 98 98 98 97 98 98 98 97 97 95 94 83 80 72 63 66 69 66 68 65
98 100 99 99 99 99 97 98 95 93 92 98 98 96 100 100 99 97 93 87 90 91 96 97 96 95 97 93 93 89 96 92 79 63 60 60 62 66 68 61 62 68 69
98 98 97 96 96 94 90 92 96 95 88 92 96 94 92 95 94 92 92 88 91 91 91 90 89 86 85 83 83 82 79 75 70 66 62 64 71 70 63 60 63 72 72
97 93 91 89 89 88 88 92 92 94 94 92 96 96 92 87 90 88 88 92 93 89 89 81 80 81 82 83 82 80 78 73 72 73 74 73 68 66 59 62 65 62 64
98 95 90 86 85 87 86 85 86 87 93 95 91 92 93 84 92 91 90 91 87 83 82 79 81 80 84 84 79 74 66 64 63 68 70 62 62 58 67 65 61 65 67
93 95 93 95 96 87 84 80 80 82 81 85 89 88 94 93 90 88 86 86 86 85 72 70 75 74 79 80 79 68 59 54 64 68 64 63 64 65 69 67 64 65 61
77 78 88 92 83 82 79 78 72 75 82 91 91 87 82 87 86 86 85 86 88 79 78 74 70 70 70 68 62 55 50 62 66 67 66 61 60 64 70 69 70 62 58
80 87 85 88 94 93 92 89 88 87 87 86 90 89 81 73 80 85 87 88 86 80 68 66 57 59 59 57 54 54 64 69 68 60 55 53 55 65 61 67 63 53 59
82 88 88 91 87 90 90 89 88 89 77 72 76 75 79 80 84 85 90 86 75 65 60 59 52 53 50 50 50 55 70 70 47 56 55 53 49 53 59 70 59 58 57
88 89 93 94 94 93 86 87 85 86 78 71 74 79 70 75 82 86 87 82 74 74 73 64 53 51 48 44 43 57 72 69 58 63 48 48 48 58 65 71 62 56 56

GFSGL_sfc_rhum_027.txt.gz
RH
68 70 71 75 76 79 79 86 83 89 87 87 89 88 87 83 89 91 94 93 92 94 93 91 87 88 88 80 91 91 87 82 78 80 78 69 77 76 70 76 82 84 84
64 66 69 70 76 81 80 88 84 82 83 82 86 87 84 82 80 89 90 85 92 92 93 93 90 86 92 90 81 87 82 90 76 71 75 78 80 80 80 83 76 70 76
64 67 70 73 78 77 77 79 90 81 80 80 83 86 85 83 83 80 86 89 91 91 91 93 93 92 92 95 90 90 94 95 93 89 82 85 80 81 76 76 80 79 70
64 68 72 74 77 77 72 76 87 84 82 80 80 82 84 83 80 79 81 88 94 87 92 90 92 90 89 86 86 91 95 96 96 96 96 96 88 78 85 81 76 79 78
67 71 72 72 75 77 78 76 76 86 84 80 83 85 85 82 78 81 81 84 91 89 88 86 91 88 86 87 89 94 97 96 97 97 95 90 84 85 81 79 83 94 93
68 72 72 75 77 80 82 82 82 85 84 88 86 85 88 82 84 86 82 84 88 88 94 96 93 90 91 88 86 89 92 94 95 97 96 95 91 84 94 96 94 97 97
71 72 73 75 79 83 84 87 88 86 86 94 87 87 90 87 89 88 87 91 93 95 96 92 90 81 92 93 93 91 90 90 88 93 94 92 91 92 95 94 97 97 98
73 74 76 76 79 81 84 88 89 87 89 91 92 90 90 91 91 92 89 91 96 95 93 94 88 88 93 94 96 97 95 93 94 89 86 81 90 89 95 94 94 96 97
73 75 76 78 80 82 85 86 86 90 88 91 94 94 94 94 96 93 94 94 96 96 95 92 92 92 95 93 94 96 96 97 96 95 95 93 98 96 96 99 99 99 98
71 71 73 76 79 83 83 83 84 86 89 86 95 95 95 94 99 95 92 95 98 98 98 97 95 94 96 96 94 96 94 92 96 95 95 94 94 92 91 98 97 98 98
62 66 70 75 78 78 81 81 86 93 91 94 95 96 96 95 99 98 95 97 98 98 96 97 94 96 96 98 92 90 93 94 94 96 95 90 86 86 84 90 96 97 97
55 61 70 72 75 77 81 84 90 96 96 96 98 99 99 99 100 99 100 98 98 96 89 88 96 97 94 94 98 97 100 95 98 97 95 90 90 90 89 77 84 91 96
55 58 60 70 73 74 84 93 96 97 94 96 99 99 100 99 99 100 100 99 95 90 96 95 98 100 99 100 98 100 100 99 98 95 94 93 93 92 88 73 69 68 65
57 59 60 68 74 72 79 87 95 97 97 98 99 98 99 99 99 98 97 95 98 97 99 99 97 97 95 97 99 100 99 99 98 96 94 94 95 92 75 77 71 68 68
59 57 59 64 74 84 97 98 96 95 97 99 99 99 99 99 98 99 99 99 99 100 98 95 98 97 97 97 98 98 99 98 98 97 95 96 96 90 77 79 74 75 69
92 92 97 99 99 99 99 99 100 100 100 100 100 100 100 100 100 100 100 100 100 100 96 98 99 98 98 97 97 98 98 95 98 97 96 97 96 83 80 71 76 75 69
96 99 99 99 99 99 99 99 99 100 100 100 100 100 100 100 100 100 100 100 100 99 99 99 99 98 98 97 97 97 96 97 96 97 97 94 84 77 69 69 68 69 64
94 100 99 99 98 98 98 98 99 98 99 100 99 100 100 100 100 100 100 100 98 98 97 98 98 98 98 98 98 98 98 98 98 96 80 69 66 63 70 64 65 66 72
99 98 96 100 99 98 97 97 95 98 98 99 98 98 98 100 100 100 98 89 98 98 98 97 97 97 97 96 93 93 91 84 73 70 68 65 72 73 66 65 65 73 74
99 98 99 98 99 98 98 92 91 92 96 98 97 99 95 95 95 93 95 95 94 96 96 94 94 92 89 85 84 84 80 75 72 73 73 72 75 71 60 63 67 64 68
99 98 98 97 95 97 97 96 96 93 92 92 92 93 95 85 90 89 95 94 91 92 94 89 86 83 86 84 83 82 76 74 71 68 74 81 70 61 69 69 65 68 71
97 96 96 98 98 94 94 92 91 87 84 88 94 95 97 96 90 90 93 91 90 88 81 75 77 75 77 79 83 77 73 67 66 73 72 67 66 70 71 69 68 67 63
96 96 96 97 95 92 95 93 90 85 86 92 95 96 96 94 95 91 88 90 92 89 84 82 78 81 85 84 80 71 60 59 64 72 70 69 67 66 70 68 68 61 60
87 92 95 96 97 97 96 97 96 97 93 94 91 93 88 88 89 88 89 91 93 90 82 78 64 62 69 76 69 59 56 64 71 68 64 64 62 69 66 68 67 56 62
79 88 91 94 93 94 97 97 96 96 95 89 87 88 87 83 86 90 93 93 92 87 75 70 60 55 55 51 50 51 67 80 68 69 58 51 49 52 62 72 65 60 61
95 92 95 94 95 94 93 93 95 92 90 90 94 90 81 90 89 91 96 95 89 80 71 69 66 59 50 48 49 62 82 77 60 68 55 53 50 54 68 72 69 60 55

GFSGL_sfc_rhum_030.txt.gz
RH
77 77 76 77 78 79 83 83 85 86 89 89 92 92 91 89 88 89 90 87 88 90 88 88 88 87 78 78 78 76 74 70 67 70 79 75 77 72 68 69 66 72 69
73 78 77 78 79 79 84 83 85 89 89 88 90 91 90 88 88 87 87 83 86 88 88 90 86 78 86 86 79 84 79 82 74 83 78 80 80 79 78 80 69 58 68
67 73 75 75 79 80 83 81 86 87 89 86 88 90 90 88 88 87 86 86 86 84 85 88 86 88 89 85 83 80 78 87 89 76 74 83 74 72 77 79 74 74 69
58 68 74 75 76 77 80 82 86 86 88 87 87 88 88 86 85 84 85 87 86 84 84 83 84 86 87 88 85 89 93 96 94 93 92 90 78 77 82 82 79 78 80
64 65 71 73 74 77 81 83 86 87 86 85 86 86 86 83 78 85 84 85 87 86 86 85 84 86 87 86 83 94 95 95 96 95 89 81 77 77 82 81 86 91 78
67 68 70 75 77 79 82 82 86 89 88 88 86 85 87 78 83 87 82 81 85 86 89 89 88 91 92 89 86 88 90 94 95 95 92 90 86 79 92 93 92 81 75
70 71 75 77 80 82 84 86 87 89 88 91 87 86 87 85 90 90 87 85 89 91 91 93 90 92 92 89 92 90 92 89 88 89 90 87 86 88 89 88 89 86 80
72 74 77 80 80 82 86 87 87 85 89 89 89 89 88 87 93 91 88 87 93 92 91 91 90 91 93 90 90 90 91 88 90 91 84 80 82 85 88 87 87 89 86
74 75 78 80 81 83 86 87 86 86 86 86 87 90 92 91 95 93 92 90 95 94 92 90 92 93 94 94 91 90 90 91 97 95 93 94 93 94 91 90 90 93 84
75 75 77 79 81 83 84 86 85 85 86 83 86 91 92 91 99 96 91 86 96 97 96 96 95 90 96 95 91 94 91 92 90 94 88 93 94 90 96 88 77 78 80
70 73 77 79 82 81 83 82 83 88 89 92 94 95 94 92 96 98 95 94 95 97 97 98 97 99 99 98 94 89 92 93 89 88 88 83 74 72 66 74 83 76 81
77 77 79 81 78 77 85 86 87 93 94 94 96 96 97 96 100 99 97 96 98 97 97 93 94 100 99 99 99 97 96 96 96 93 82 78 72 65 66 67 78 79 75
78 82 82 82 82 82 86 91 94 95 88 94 97 97 97 98 100 100 98 100 100 98 97 97 99 99 98 98 97 99 100 97 92 83 79 75 69 67 75 73 69 72 73
78 82 83 86 85 84 81 84 85 90 90 94 96 96 97 100 99 99 99 99 100 99 99 97 98 99 97 96 97 98 92 88 84 81 78 72 72 74 69 61 58 56 52
82 80 82 81 83 85 94 95 92 89 89 94 95 96 99 99 99 100 100 99 100 100 95 94 97 90 91 90 89 93 93 91 88 81 76 75 75 73 69 63 60 57 52
99 96 95 97 98 99 99 99 100 100 100 100 100 100 100 100 100 100 100 100 100 100 95 97 98 97 95 88 95 93 90 89 85 80 77 76 75 74 69 61 58 56 53
99 100 100 99 99 99 99 99 99 100 100 100 100 100 100 100 100 100 100 100 100 98 95 96 94 94 90 88 88 84 83 84 87 79 77 76 75 70 64 55 55 52 50
94 100 99 99 99 99 99 98 95 96 98 100 100 100 100 100 100 100 100 100 98 97 93 94 92 91 89 83 83 82 85 88 85 80 79 75 69 57 53 54 52 51 50
95 98 97 98 99 100 98 96 96 96 97 99 100 100 100 100 100 100 100 98 98 97 93 92 87 86 84 82 83 84 83 82 80 78 69 60 53 52 54 50 47 63 62
95 100 99 98 99 99 99 99 100 100 99 99 99 99 97 98 98 98 98 98 97 86 84 83 84 84 84 83 80 79 75 70 66 59 55 53 55 52 44 44 45 44 49
98 98 100 98 98 98 98 99 99 98 98 99 99 99 100 98 96 94 89 88 85 81 82 81 81 78 77 76 71 67 61 57 58 56 54 55 56 49 48 47 43 44 44
98 98 96 97 97 97 98 98 98 98 98 98 98 96 100 86 86 85 83 80 77 78 74 77 71 66 62 61 66 58 56 56 57 54 52 53 52 46 48 46 44 43 40
96 94 95 97 96 97 95 94 96 95 94 96 94 91 87 85 82 81 80 77 76 73 72 67 65 61 60 61 58 54 51 51 51 50 52 52 48 47 48 45 43 41 38
92 92 94 98 98 96 96 96 97 99 96 95 93 94 92 92 82 78 74 76 73 69 68 65 59 55 65 60 59 53 50 48 49 50 51 48 46 53 46 45 44 41 38
77 87 93 96 96 96 96 97 98 97 97 96 95 92 87 83 76 75 77 74 73 69 66 61 58 62 64 65 57 52 58 75 57 62 50 49 47 52 42 41 45 40 41
88 89 94 95 96 96 92 93 96 97 98 97 97 98 97 96 93 91 84 74 70 68 63 60 60 61 62 57 55 59 81 83 65 72 46 42 39 38 38 45 50 40 40

GFSGL_sfc_rhum_033.txt.gz
RH
68 69 70 69 69 72 71 73 74 72 73 73 74 73 73 76 77 80 76 70 74 72 70 72 73 71 53 51 52 51 50 48 45 44 44 55 63 60 52 55 52 56 46
63 70 70 70 70 70 72 72 74 76 73 75 73 74 74 74 76 79 77 68 73 73 71 73 70 60 74 69 56 67 57 59 48 67 56 53 63 65 62 63 50 40 52
59 62 66 68 70 71 73 72 74 76 76 69 72 75 74 74 76 77 76 74 73 71 70 72 70 70 73 58 63 59 54 59 60 52 50 51 52 52 58 62 62 58 54
50 56 66 69 69 68 72 74 73 76 77 76 76 74 73 72 73 73 74 75 74 70 70 69 67 70 72 74 71 73 66 61 65 60 54 53 55 58 58 53 51 57 50
56 57 64 69 70 71 73 75 74 76 75 76 76 75 73 69 62 74 73 73 76 74 72 69 67 70 78 76 66 74 75 69 60 58 58 56 55 55 58 44 53 53 62
61 61 65 71 74 75 76 77 79 79 78 78 76 76 76 63 76 86 77 71 74 75 75 74 70 81 84 88 86 83 77 76 75 58 55 59 68 63 52 54 55 60 52
64 64 67 73 76 78 76 79 81 81 78 81 78 76 77 75 86 88 88 66 70 75 77 74 69 63 81 72 89 88 87 87 80 74 72 69 72 68 70 75 68 67 59
66 66 68 73 76 76 78 79 81 78 80 80 80 79 77 74 90 90 88 73 73 74 74 75 76 74 78 79 72 74 72 73 75 60 68 72 70 68 71 66 80 76 66
65 69 70 73 76 76 78 80 77 77 78 78 75 80 81 77 93 92 89 74 72 77 74 73 75 77 85 93 82 75 74 73 85 89 86 88 87 88 75 61 74 61 54
63 66 69 71 73 75 77 80 78 76 75 67 72 76 82 78 97 94 88 62 73 69 78 80 91 78 94 96 89 74 76 71 73 76 76 86 90 86 95 77 62 52 45
55 59 67 71 77 76 79 80 78 80 76 81 78 77 80 82 81 97 94 72 61 71 68 74 71 95 99 98 92 76 75 68 81 70 63 60 68 70 60 68 66 52 47
61 66 73 76 67 65 82 82 82 82 85 85 85 80 76 80 95 99 97 91 82 71 74 72 85 100 100 99 96 90 96 86 60 56 58 61 58 56 54 54 63 61 51
68 72 73 74 74 76 81 84 79 81 73 79 74 75 74 88 86 100 99 96 97 87 87 94 99 100 100 100 99 96 95 61 59 58 59 55 54 51 58 64 64 68 68
70 75 74 75 77 76 74 85 78 68 72 68 72 78 77 94 98 99 98 98 100 100 100 100 100 100 100 98 98 92 70 61 60 58 57 56 56 56 54 50 47 45 43
68 66 70 64 75 74 72 69 65 68 67 68 67 68 85 100 99 100 100 99 99 100 99 99 99 99 99 97 94 79 70 67 66 61 61 61 56 53 53 51 49 47 47
78 63 56 52 57 61 84 96 100 98 100 100 99 87 98 100 100 100 100 100 100 100 99 99 100 99 96 88 78 78 76 75 64 64 61 58 55 56 54 53 49 47 44
74 93 93 82 70 88 96 95 97 100 100 100 100 100 100 100 100 100 100 100 100 100 99 99 98 97 93 78 76 69 65 62 70 62 60 57 55 55 59 52 48 44 41
81 99 91 96 90 93 96 96 94 97 99 99 100 100 100 100 100 100 100 100 100 99 98 98 92 87 78 73 64 61 57 63 61 59 58 56 56 55 53 49 44 42 37
71 83 87 98 98 99 99 99 99 99 99 98 99 100 100 100 100 100 100 94 97 96 96 94 88 74 73 67 65 60 61 59 59 59 57 55 54 50 48 42 37 52 49
78 98 92 93 93 96 95 97 99 99 99 99 99 99 99 99 99 98 95 96 97 97 97 93 82 70 66 66 63 63 64 66 64 58 53 50 47 40 37 36 31 30 33
87 74 91 71 69 70 80 91 92 98 99 99 99 100 100 97 96 96 97 98 97 96 92 77 80 70 68 68 65 62 55 49 50 46 44 43 42 37 36 31 27 27 25
84 86 75 77 84 86 73 80 84 92 93 98 99 99 100 97 97 95 95 92 87 83 68 65 61 60 58 59 58 47 42 41 42 42 42 38 39 35 32 29 27 26 26
71 80 86 81 71 84 70 74 84 90 91 94 97 97 97 97 96 94 85 68 66 61 56 56 54 52 50 49 42 37 35 36 39 39 38 37 34 32 31 29 28 28 26
66 69 77 85 89 86 85 87 91 96 92 95 96 93 90 87 76 70 62 59 59 55 55 54 48 43 48 41 39 33 32 33 34 36 35 32 31 39 30 29 28 27 25
52 56 67 79 81 89 88 74 82 86 85 88 85 86 79 77 68 64 62 56 54 53 53 48 45 46 44 41 37 35 61 71 42 46 36 35 34 39 30 27 25 24 27
59 64 76 87 84 85 88 92 92 88 89 91 91 93 87 82 69 66 60 55 52 49 48 45 42 42 42 42 41 61 80 81 53 66 34 33 33 32 27 28 27 24 26

GFSGL_sfc_rhum_036.txt.gz
RH
57 60 62 60 61 65 63 65 66 61 62 61 62 61 60 61 65 72 68 60 68 68 59 56 65 60 38 36 37 36 37 36 37 31 33 45 56 54 43 45 44 44 39
52 62 62 61 62 59 66 64 67 68 63 66 64 64 62 59 63 70 70 58 66 67 64 63 61 50 65 59 41 59 47 48 39 57 45 41 59 56 55 59 43 32 36
48 50 54 56 59 62 66 65 67 69 69 58 63 68 65 61 64 68 68 65 63 64 62 64 62 60 65 48 53 45 44 47 49 43 40 41 39 44 54 58 55 52 42
36 43 53 58 59 58 64 68 65 69 70 67 67 67 65 61 60 61 65 65 65 62 62 61 60 58 64 66 54 62 54 47 52 46 41 38 44 48 46 43 44 47 42
41 41 50 59 61 61 65 68 67 69 68 68 69 66 66 57 48 64 64 63 67 66 64 62 59 62 70 66 49 64 66 58 41 45 44 40 41 42 49 42 41 40 53
45 46 52 62 66 66 68 70 73 72 72 71 69 68 67 50 62 75 69 60 65 68 69 66 63 75 75 82 81 81 68 69 68 42 42 47 61 52 46 44 42 46 47
51 52 57 63 68 70 69 73 75 76 72 75 72 70 70 67 76 79 83 56 60 66 70 66 59 51 73 64 86 85 85 86 80 65 67 59 60 61 60 64 64 56 55
57 57 60 64 67 70 73 74 76 73 75 74 73 73 72 66 83 84 84 67 63 65 67 67 69 65 65 68 67 68 70 72 71 53 61 60 66 60 64 62 66 72 57
55 60 60 61 63 66 74 75 72 70 72 71 68 73 75 71 89 88 87 66 63 68 65 66 68 70 77 87 69 69 76 77 82 83 85 84 81 79 71 50 53 67 49
52 55 58 61 65 68 71 76 72 68 67 58 64 68 76 73 92 92 84 53 62 54 68 73 86 71 88 92 78 74 77 76 68 67 70 80 82 76 89 69 50 49 50
45 47 56 62 68 68 74 73 72 71 66 72 69 68 71 74 74 95 94 66 47 52 46 53 57 89 96 96 90 83 79 76 78 73 70 60 60 60 58 63 60 48 41
49 51 59 65 56 54 75 75 75 74 78 77 79 75 62 72 87 97 95 84 71 53 52 45 56 95 97 98 97 97 100 98 92 86 78 60 66 51 50 51 63 58 40
55 60 61 63 64 64 73 75 66 74 61 68 60 62 60 51 62 93 97 94 88 71 48 59 86 100 99 99 100 100 100 98 96 80 69 58 53 48 55 58 60 65 63
62 64 63 65 67 65 55 57 57 54 58 54 59 67 57 51 51 54 78 85 93 83 99 93 95 99 100 98 100 100 98 99 96 74 64 59 57 48 52 48 47 48 42
61 58 60 54 65 63 62 52 52 56 50 54 53 56 48 47 49 80 99 98 97 98 99 99 99 99 99 99 99 99 98 83 74 62 59 56 53 52 50 44 42 40 41
55 48 42 40 44 51 50 57 96 94 100 100 100 83 45 87 100 100 100 100 100 100 99 99 99 99 98 98 99 99 99 96 75 65 59 59 53 51 48 45 44 42 42
59 67 52 60 36 39 46 48 49 72 100 100 100 100 100 100 100 100 100 100 100 98 93 95 96 97 97 98 97 97 97 95 81 66 59 55 48 48 50 46 45 44 42
69 97 54 74 76 75 81 83 82 82 86 77 98 100 100 100 100 100 100 100 99 99 91 93 95 92 86 84 83 88 86 68 61 56 53 50 48 47 47 45 42 43 39
56 60 68 62 68 82 90 94 95 96 98 98 98 99 98 100 100 100 100 96 96 95 93 90 84 71 74 74 69 61 62 56 52 52 48 48 44 43 43 39 37 54 47
67 93 75 58 60 68 62 74 83 95 97 97 98 98 98 97 98 98 97 99 99 98 75 63 61 62 65 69 67 57 51 52 52 49 49 44 41 38 36 37 33 31 32
48 50 85 51 46 46 48 54 60 71 92 94 85 96 100 94 97 96 96 98 99 99 91 67 58 63 75 74 67 54 49 48 48 47 41 41 40 37 35 30 27 24 22
61 51 44 45 47 48 50 51 48 50 56 64 78 96 100 87 96 95 96 97 98 98 94 90 78 82 64 59 57 50 50 46 44 40 39 35 36 34 30 25 23 22 21
44 50 54 58 59 76 57 54 63 75 78 73 82 72 76 88 96 96 99 98 99 99 99 94 84 61 50 51 48 42 38 37 36 35 35 34 32 30 27 25 22 22 21
44 44 50 62 68 52 54 62 70 93 91 94 91 90 90 97 96 98 98 86 67 60 54 51 48 47 50 45 40 33 31 30 32 34 35 33 30 33 24 24 22 22 21
43 48 49 51 54 53 49 48 55 66 72 84 88 87 84 79 74 59 52 51 50 49 49 45 41 45 43 39 34 31 65 58 38 42 31 30 30 32 25 23 23 22 22
45 52 54 62 63 69 71 67 70 68 62 58 60 62 64 60 58 53 47 44 42 40 39 37 38 40 38 34 34 67 78 75 43 57 30 28 28 27 24 25 26 20 21

GFSGL_sfc_rhum_042.txt.gz
RH
70 73 73 73 74 73 69 71 73 69 74 70 76 74 75 75 76 82 79 76 80 82 79 81 83 80 73 70 66 69 71 70 72 69 71 77 74 70 70 67 70 76 77
67 72 72 72 73 73 74 69 72 75 70 73 73 74 74 74 76 78 79 68 76 80 79 80 81 68 84 83 79 75 72 73 74 78 74 81 79 78 79 81 66 49 68
60 64 68 70 72 73 74 71 70 73 74 67 72 76 74 74 75 76 77 76 72 78 79 79 78 79 83 71 79 76 74 75 78 75 78 78 80 78 81 80 82 79 66
47 56 66 68 69 69 72 75 71 72 74 72 71 73 74 72 73 72 74 77 77 72 77 77 77 76 78 82 74 80 78 78 78 80 78 76 78 80 76 77 87 84 78
45 51 59 66 67 68 71 73 75 74 72 73 74 72 72 70 63 74 73 75 78 77 73 76 75 75 77 77 72 81 80 80 79 70 76 77 76 80 74 78 80 79 83
48 48 56 64 68 70 71 72 75 77 76 76 76 74 74 63 73 80 74 71 76 79 80 76 75 81 81 82 81 79 78 79 75 68 68 68 77 73 81 79 77 88 85
50 53 56 64 68 72 71 74 76 78 77 79 78 76 76 74 81 82 82 67 72 76 79 78 72 63 81 76 83 81 79 82 73 73 73 76 85 79 79 86 83 83 85
59 56 60 64 66 70 74 75 77 75 78 78 78 79 78 73 84 85 82 70 71 73 75 77 78 75 76 76 76 76 72 71 80 70 72 72 83 81 80 84 87 86 85
52 61 58 62 64 69 75 76 75 76 76 77 75 79 80 78 89 89 86 70 69 74 72 73 76 77 78 86 76 80 77 74 74 82 80 86 81 88 82 83 88 87 87
51 54 60 60 65 68 72 77 76 75 75 70 74 75 80 78 90 93 88 67 69 66 71 74 84 76 87 90 78 78 84 78 75 74 84 91 89 85 88 82 78 80 81
50 52 59 65 66 69 74 76 77 77 75 79 77 76 77 78 78 96 94 74 68 64 63 64 65 89 92 94 87 74 77 77 82 75 79 86 94 95 97 96 82 87 82
53 58 64 69 60 56 76 78 79 80 83 82 83 78 72 76 94 96 98 95 81 72 67 59 63 85 94 96 93 81 93 88 80 81 94 96 97 98 97 96 90 87 90
63 70 69 70 70 70 77 79 76 82 79 81 76 74 73 68 72 98 99 96 96 86 69 70 86 90 93 95 94 90 97 83 89 94 96 97 97 96 93 91 94 91 94
70 75 74 74 75 73 64 68 70 70 78 76 75 74 67 67 68 65 81 89 96 91 84 79 81 86 89 87 90 94 89 94 96 97 97 97 98 98 98 97 98 96 96
71 70 72 65 75 74 71 66 68 70 68 67 68 64 63 65 68 91 80 80 78 86 85 80 78 77 85 91 95 96 96 96 98 97 97 98 98 98 98 98 97 97 96
70 63 59 56 62 64 69 70 99 97 99 100 100 94 84 97 100 100 100 100 98 100 92 84 91 94 96 96 97 97 97 97 97 97 98 97 98 99 98 98 96 94 89
73 72 56 61 52 66 65 68 70 97 100 100 100 100 100 100 100 100 100 100 100 99 84 90 94 98 98 97 97 96 97 97 96 98 98 98 97 97 99 98 93 79 69
70 84 57 56 61 67 67 68 61 77 77 77 95 94 99 100 100 100 100 100 98 99 88 97 98 98 98 98 98 98 96 96 98 98 98 97 98 98 97 94 77 67 67
64 56 55 62 65 67 67 62 61 68 70 70 70 84 93 100 100 100 100 99 100 99 99 99 99 99 99 100 99 100 99 100 100 100 100 99 98 96 94 91 82 75 70
65 77 65 61 62 62 59 61 64 67 67 67 66 68 71 77 79 90 95 97 98 98 97 95 97 99 99 99 99 99 100 100 99 98 100 98 96 95 92 76 64 65 66
49 52 64 50 49 50 54 55 58 59 67 66 60 79 100 76 77 83 85 84 82 84 89 90 94 95 99 99 99 99 96 99 98 98 98 98 96 88 66 60 58 54 53
44 46 44 41 46 52 54 57 58 57 55 57 58 74 100 66 63 71 81 79 73 76 76 87 89 92 94 98 98 98 99 99 98 98 98 98 98 73 58 56 53 49 49
52 54 50 51 50 65 57 58 65 71 70 71 68 66 67 70 67 70 80 76 77 82 84 86 93 98 98 97 98 91 92 92 90 90 86 75 63 62 59 58 53 53 46
53 53 53 59 64 55 58 66 70 77 70 72 78 85 78 73 74 75 72 73 78 73 84 89 92 97 92 97 88 82 76 64 65 65 62 64 61 62 57 54 50 47 44
56 59 61 63 64 65 65 66 74 79 78 82 86 84 82 74 66 64 61 63 62 67 71 84 81 86 85 82 73 71 72 78 66 71 62 57 56 60 54 50 48 44 42
51 59 63 63 66 69 72 72 73 76 77 78 80 85 86 87 84 79 75 74 72 52 53 64 70 63 69 68 56 72 83 74 62 69 57 56 55 55 51 50 47 41 41

GFSGL_sfc_rhum_045.txt.gz
RH
74 73 76 78 77 72 82 71 78 76 81 84 84 78 80 81 86 86 88 91 94 95 91 94 93 91 80 75 77 74 67 72 68 68 74 72 78 79 77 76 76 83 76
73 76 75 76 78 75 72 86 64 80 70 86 85 81 84 80 80 88 90 80 90 96 94 91 94 82 86 86 88 74 71 77 69 67 85 83 76 78 74 76 69 61 79
70 72 76 75 78 80 74 68 83 66 76 69 86 82 80 81 86 82 86 83 85 90 88 88 85 90 84 73 92 85 86 73 84 78 82 88 87 88 90 85 79 76 72
64 71 74 77 74 74 76 75 66 74 71 75 72 82 79 78 77 79 80 83 81 78 89 83 80 87 80 77 81 80 82 85 84 84 80 79 86 90 79 78 92 93 80
61 66 71 72 72 72 73 76 77 70 73 71 72 70 80 73 71 76 78 79 80 79 77 85 81 78 81 78 72 74 75 85 90 73 90 86 78 94 81 88 77 82 92
49 62 64 70 71 73 74 74 77 79 72 76 73 72 73 72 78 85 76 76 78 80 82 77 80 86 85 86 84 77 70 64 62 76 60 68 65 73 80 76 73 95 94
46 50 60 66 72 73 73 75 77 78 78 75 76 75 76 72 85 86 87 70 73 78 79 80 76 71 87 81 87 86 83 83 63 55 68 62 57 61 78 82 66 74 93
47 52 52 65 69 72 72 74 74 73 76 79 78 76 77 73 87 89 87 72 71 72 75 76 78 77 75 82 81 80 77 76 78 62 55 56 72 62 69 64 71 85 94
52 59 57 63 66 69 72 72 71 71 72 73 76 78 79 77 92 92 90 74 71 72 72 74 76 78 81 91 81 84 81 75 77 82 75 73 82 87 85 84 92 90 98
56 66 72 63 66 69 70 70 69 69 70 71 72 75 80 77 93 95 93 75 74 72 69 70 87 79 90 93 82 80 86 78 73 75 81 89 90 81 88 70 92 94 97
62 68 73 71 71 70 69 70 71 73 72 74 76 73 76 78 79 98 96 77 73 72 71 68 67 91 96 98 93 74 76 73 78 73 71 68 89 94 93 92 82 81 96
66 73 79 84 68 76 81 78 77 77 79 78 80 80 76 76 96 99 99 97 85 78 74 68 66 87 95 97 98 89 90 90 72 80 75 83 90 93 93 94 92 92 92
71 81 80 75 78 74 88 89 86 82 81 84 83 84 83 77 83 100 100 98 96 92 74 76 86 93 93 95 94 94 98 90 83 83 82 87 88 90 93 95 94 95 95
82 82 92 91 95 89 91 83 81 85 85 86 90 90 83 91 88 78 91 99 99 98 94 92 93 91 90 82 93 98 93 93 92 94 83 86 95 98 98 97 97 98 98
87 91 94 94 89 94 90 98 89 79 85 92 91 90 95 90 90 100 99 99 95 97 96 97 96 94 94 90 96 98 99 98 98 97 98 97 98 99 98 98 97 98 97
93 92 94 91 96 94 91 100 100 99 99 100 99 97 92 99 100 100 100 100 100 100 100 99 98 96 96 95 96 97 99 98 98 97 97 98 99 99 98 98 98 98 98
94 92 88 88 88 89 87 89 99 100 99 99 99 99 100 100 100 100 100 100 100 100 98 98 98 98 98 99 99 99 98 98 96 98 98 97 97 98 98 98 99 99 99
85 82 87 90 91 90 91 93 88 96 97 99 100 100 100 100 100 100 100 100 99 100 99 99 99 99 99 99 99 99 99 98 99 99 99 99 99 100 100 99 98 98 98
80 86 88 88 93 90 95 94 86 89 90 93 98 100 100 100 100 100 100 99 99 100 99 99 98 98 98 99 99 99 99 99 99 99 98 98 98 96 97 99 99 100 96
81 80 93 91 94 89 95 95 95 94 95 93 96 95 95 97 97 97 98 98 98 97 96 95 95 98 99 99 99 99 100 100 100 97 98 99 99 98 98 98 98 96 91
79 78 87 85 85 85 86 92 92 93 95 94 92 95 100 95 97 96 96 97 97 96 97 98 98 99 98 99 99 99 99 99 98 98 99 100 99 99 98 97 96 88 93
75 78 76 73 72 80 82 82 81 83 84 91 94 92 100 81 94 96 96 97 97 97 97 97 98 98 99 99 99 99 99 99 99 99 99 98 97 97 96 91 76 75 70
65 69 68 68 71 77 79 82 84 86 89 91 89 88 88 89 89 92 94 95 95 96 96 96 98 99 99 98 98 98 98 98 98 98 98 98 98 97 83 72 65 60 61
69 70 74 74 77 78 84 87 91 95 89 90 90 89 90 86 85 88 88 87 93 94 95 96 98 98 98 98 97 95 95 96 97 97 96 96 93 87 69 65 60 54 52
84 86 84 78 81 86 88 88 82 83 85 87 88 89 91 91 88 86 86 86 85 88 88 91 96 96 95 94 92 84 90 90 87 88 74 70 66 64 61 57 54 56 54
81 77 79 76 76 76 82 85 86 86 89 88 89 90 90 90 89 91 91 90 86 86 85 85 83 69 84 89 79 76 85 88 75 84 65 64 64 61 57 52 49 50 49

GFSGL_sfc_rhum_048.txt.gz
RH
67 72 71 70 69 90 78 72 70 80 80 81 80 83 84 85 87 91 90 96 94 95 95 94 93 93 93 85 84 83 75 76 67 64 82 76 83 81 74 77 67 66 70
68 71 76 77 75 73 84 79 71 72 80 82 88 87 85 84 85 85 88 81 95 96 94 96 90 84 95 92 83 82 80 78 68 67 74 92 78 84 77 80 65 55 67
69 73 75 79 81 80 72 75 79 73 72 84 93 89 86 83 85 85 83 84 92 90 94 93 89 91 89 90 93 79 90 77 84 73 69 91 86 90 89 85 84 77 73
71 74 76 78 82 81 80 73 75 81 72 78 83 89 86 85 81 81 83 86 87 87 89 90 88 88 85 88 88 86 85 90 91 92 84 92 90 91 87 73 88 94 81
72 75 78 77 76 81 84 80 77 74 81 70 70 84 86 82 79 82 81 82 84 84 85 89 87 85 85 82 75 76 84 79 95 94 94 88 88 96 84 85 72 67 82
70 74 73 78 79 78 81 85 82 82 74 76 78 74 85 79 84 87 81 80 81 82 83 85 83 89 89 89 87 80 76 75 69 74 70 71 61 62 92 70 72 95 87
66 67 72 74 80 81 79 82 85 85 81 75 76 76 72 76 88 89 89 74 78 81 80 80 80 75 91 87 91 87 85 82 70 57 62 62 62 57 68 86 76 73 76
55 67 69 76 78 79 80 80 80 80 84 84 78 76 80 71 89 92 90 78 73 75 79 79 80 80 78 89 88 89 86 78 76 67 54 52 51 54 60 58 64 71 92
53 54 66 69 76 79 80 81 77 79 78 80 81 81 78 80 92 93 93 83 79 77 75 77 79 80 85 92 87 90 88 84 82 84 78 73 71 76 68 63 90 92 97
49 52 55 62 70 75 77 76 76 75 77 76 77 79 85 80 94 95 93 79 82 79 76 74 88 82 92 95 88 84 88 84 82 79 88 83 84 71 85 62 67 84 88
57 55 60 57 62 67 70 72 71 75 74 76 77 75 78 84 83 98 97 81 79 79 77 74 72 92 96 99 96 81 80 74 79 81 78 79 76 84 77 83 64 67 78
72 77 82 73 62 64 70 71 72 72 78 78 79 80 78 79 98 100 99 97 88 80 78 73 73 90 96 97 99 95 95 96 84 84 84 80 79 77 91 95 91 92 96
70 80 82 84 82 82 81 78 81 80 78 83 82 82 83 83 88 100 100 99 98 95 80 82 90 96 96 95 96 95 99 98 97 96 94 87 78 71 85 94 95 93 94
87 82 89 93 94 89 82 82 82 86 86 83 88 87 86 95 95 96 98 98 100 100 99 96 95 99 100 97 96 98 92 97 98 97 92 83 83 94 97 96 98 99 99
96 96 94 95 97 97 99 99 92 93 87 89 89 94 97 96 93 98 99 99 99 99 99 99 99 99 98 97 97 98 99 98 99 98 98 98 98 98 99 98 98 98 99
95 96 98 98 98 100 99 98 99 98 99 100 100 100 97 100 100 100 100 100 100 100 100 100 99 99 99 98 98 98 99 99 98 98 98 98 98 98 98 99 99 99 98
94 95 91 98 99 99 98 98 100 98 100 100 100 100 100 100 100 100 100 100 100 100 99 98 99 99 99 99 99 99 99 99 99 99 99 98 98 98 98 98 99 99 99
93 95 94 97 98 98 97 96 95 94 93 97 100 100 100 100 100 100 100 100 99 100 99 99 99 98 98 99 99 99 99 99 99 99 99 99 99 100 99 99 99 98 98
92 93 93 96 97 99 99 98 94 96 83 93 99 100 99 100 100 100 100 98 100 100 98 99 98 98 98 98 99 99 99 99 99 99 98 96 98 97 99 97 97 100 100
92 85 95 90 94 95 98 98 98 97 96 95 96 95 99 98 96 98 98 98 98 97 96 96 96 97 98 98 99 99 99 99 99 100 98 97 98 99 97 98 99 99 99
95 89 91 88 87 86 92 94 95 95 97 96 85 96 100 96 97 96 97 98 97 97 97 97 98 98 99 99 99 99 99 99 99 98 98 99 99 99 99 98 98 97 96
95 91 93 93 94 92 89 90 94 94 92 94 94 96 100 97 97 96 96 96 97 97 98 97 98 99 99 99 99 99 99 99 98 99 99 99 99 99 98 97 93 93 94
87 83 79 87 87 91 91 94 96 98 99 98 98 99 95 96 98 96 95 95 97 99 98 98 98 99 98 99 99 99 99 99 98 98 99 99 99 99 98 95 91 90 89
84 78 81 82 87 90 95 97 96 98 97 97 97 93 93 93 96 89 91 93 93 87 94 94 92 92 99 98 98 98 98 98 98 98 97 98 98 99 94 91 84 80 75
94 94 89 86 88 90 92 92 91 92 90 90 91 92 91 89 88 89 92 91 89 88 87 81 78 76 82 77 80 78 86 94 96 100 98 97 97 96 93 77 69 64 61
92 92 95 96 95 91 89 91 90 88 88 87 89 91 89 89 88 89 88 90 90 89 89 88 89 78 74 64 67 80 88 89 85 100 86 81 79 78 71 62 63 59 55